Location: Allonne
(49.4086°N, 2.1143°E)
Time: 23:21:40
(UTC+00:00)

Cosmos 1980 Rocket - Pass Details

Date: 03 February 2023
Orbit: 828 x 850 km, 71.0° (Epoch: 01 April)

Event Time Altitude Azimuth Distance (km) Brightness Sun altitude
Rises 18:43:54 0° 255° (WSW) 3,393 6.9 -18.6°
Reaches altitude 10° 18:46:54 10° 270° (W) 2,466 5.9 -19.1°
Maximum altitude 18:51:14 22° 320° (NW) 1,777 4.3 -19.8°
Drops below altitude 10° 18:55:36 10° 10° (N) 2,484 4.5 -20.5°
Enters shadow 18:57:24 - 21° (NNE) 3,020 4.9 -20.8°
